[[{"header":{"parameterUnit":"m.s-1","parameterCategory":1,"la1":30.2991,"la2":30.254,"lo1":-89.0895,"lo2":-89.0444,"dy":0.0017,"dx":0.0017,"nx":28,"ny":28,"refTime":"2025-12-11T03:00:00:Z","depth":0,"parameterNumber":2,"parameterNumberName":"U-component_of_WINDS"},"data":[0,0,0,0,0,0,0,0,0,0,0,0,0,0,0,0,0,0,0,0,0,0,0,0,0,0,0,0,0,0,0,0,0,0,0,0,0,0,0,0,0,0,0,0,0,0,0,0,0,0,0,0,0,0,0,0,0,0,-0.5841,-0.5841,0,-0.5854,-0.5854,-0.5855,-0.5844,-0.5844,-0.5843,-0.5843,-0.5858,-0.5859,-0.586,0,0,0,0,0,0,0,0,0,0,0,0,0,-0.5807,-0.5808,-0.5841,-0.5841,-0.5841,-0.5854,-0.5854,-0.5855,-0.5844,-0.5844,-0.5843,-0.5843,-0.5858,-0.5859,-0.586,0,0,0,0,0,0,0,0,0,0,0,0,0,-0.5821,-0.5808,-0.584,-0.5837,-0.5837,-0.5854,-0.5854,-0.5855,-0.5844,-0.5844,-0.5843,-0.5842,-0.5858,-0.5859,-0.586,-0.5882,0,0,-0.5864,-0.5864,0,0,0,0,0,0,0,0,-0.5821,-0.5823,-0.5838,-0.5837,-0.5837,-0.5847,-0.5848,-0.5864,-0.5844,-0.5842,-0.5843,-0.5842,-0.5855,-0.5856,-0.5861,-0.5882,-0.5883,-0.5864,-0.5865,-0.5865,-0.5866,0,0,0,0,0,0,0,-0.582,-0.5822,-0.5846,-0.5838,-0.5838,-0.5836,-0.5837,-0.5851,-0.5852,-0.5842,-0.5841,-0.5843,-0.5855,-0.5859,-0.5861,-0.5883,-0.5864,-0.5865,-0.5866,-0.5866,-0.5924,-0.5925,0,0,0,0,0,0,-0.5819,-0.5821,-0.5846,-0.5846,-0.5827,-0.5837,-0.5838,-0.5844,-0.5852,-0.5852,-0.5843,-0.5842,-0.5858,-0.5859,-0.5861,-0.5888,-0.5865,-0.5866,-0.5867,-0.5924,-0.5924,-0.5925,0,0,0,0,0,0,-0.5818,-0.5821,-0.5845,-0.5834,-0.5837,-0.5838,-0.5845,-0.5845,-0.585,-0.5853,-0.5853,-0.5848,-0.5857,-0.586,-0.5877,-0.5888,-0.5867,-0.5868,-0.5923,-0.5924,-0.5925,-0.594,0,0,0,0,0,0,-0.5817,-0.5821,-0.5828,-0.5834,-0.5837,-0.586,-0.5846,-0.5846,-0.5852,-0.585,-0.5857,-0.5858,-0.5857,-0.5875,-0.5878,-0.5889,-0.5869,-0.5922,-0.5923,-0.5925,-0.5939,-0.5942,-0.5944,0,0,0,0,0,-0.5816,-0.5832,-0.5829,-0.5832,-0.5847,-0.586,-0.5862,-0.586,-0.5853,-0.5861,-0.5863,-0.5857,-0.5886,-0.5877,-0.588,-0.5892,-0.5921,-0.5923,-0.5924,-0.5937,-0.5941,-0.5944,0,0,0,0,0,0,-0.5829,-0.5833,-0.5829,-0.5848,-0.5854,-0.5858,-0.5869,-0.5864,-0.5873,-0.5872,-0.5869,-0.5871,-0.5889,-0.5892,-0.5882,-0.5914,-0.5902,-0.5905,-0.5911,-0.5915,-0.5918,-0.5917,-0.587,0,0,0,0,0,-0.5834,-0.5844,-0.5847,-0.5863,-0.5866,-0.5867,-0.5873,-0.5871,-0.5877,-0.588,-0.5883,-0.589,-0.5901,-0.5908,-0.5918,-0.5939,-0.5941,-0.5949,-0.5952,-0.5954,-0.5957,-0.5969,-0.5973,-0.5931,-0.5931,-0.5931,0,0,-0.5844,-0.5847,-0.5854,-0.5866,-0.587,-0.5881,-0.5869,-0.5881,-0.589,-0.5882,-0.5898,-0.5901,-0.5909,-0.5928,-0.5937,-0.5931,-0.5969,-0.5956,-0.5958,-0.5959,-0.5971,-0.5975,-0.5979,-0.5932,-0.5932,-0.5932,0,0,-0.5869,-0.5872,-0.5886,-0.5891,-0.5897,-0.5898,-0.5901,-0.5907,-0.5908,-0.5925,-0.5919,-0.593,-0.5948,-0.5954,-0.5959,-0.5987,-0.5982,-0.599,-0.6005,-0.6017,-0.602,-0.6023,-0.6034,-0.6038,-0.5992,-0.5992,-0.5992,0,-0.5881,-0.5897,-0.5894,-0.5907,-0.5913,-0.5905,-0.592,-0.5925,-0.5935,-0.5939,-0.5933,-0.5956,-0.596,-0.5982,-0.5988,-0.5993,-0.5997,-0.5989,-0.602,-0.6023,-0.6026,-0.6036,-0.604,-0.5993,-0.5993,-0.5993,-0.5993,0,-0.5912,-0.5923,-0.5934,-0.5943,-0.595,-0.5964,-0.5964,-0.5971,-0.5969,-0.5971,-0.5988,-0.5993,-0.6004,-0.6009,-0.6007,-0.603,-0.6027,-0.602,-0.6009,-0.6031,-0.604,-0.6044,-0.5995,-0.5994,-0.5994,-0.5994,0,0,-0.5945,-0.5953,-0.5957,-0.5962,-0.5969,-0.5978,-0.5992,-0.6002,-0.6009,-0.6016,-0.6028,-0.6044,-0.6038,-0.6044,-0.6043,-0.6054,-0.6076,-0.6046,-0.6046,-0.6052,-0.6103,-0.6109,-0.6113,-0.6073,-0.6074,-0.6074,-0.6103,0,-0.5971,-0.5994,-0.5992,-0.6015,-0.6026,-0.602,-0.6032,-0.6038,-0.604,-0.605,-0.6052,-0.6063,-0.6054,-0.6058,-0.6068,-0.6071,-0.6087,-0.6069,-0.6085,-0.6086,-0.6084,-0.6118,-0.6124,-0.6151,-0.6107,-0.6107,-0.6108,0,-0.6004,-0.6012,-0.6036,-0.6042,-0.6046,-0.6057,-0.6067,-0.6077,-0.6084,-0.6084,-0.6091,-0.6088,-0.6103,-0.6091,-0.6112,-0.61,-0.6107,-0.6109,-0.611,-0.6112,-0.6098,-0.6122,-0.6159,-0.6163,-0.6113,-0.6113,-0.6113,0,-0.6027,-0.6044,-0.606,-0.6064,-0.6072,-0.608,-0.6083,-0.6089,-0.6096,-0.6105,-0.611,-0.612,-0.6126,-0.6135,-0.6135,-0.6126,-0.6157,-0.6144,-0.6158,-0.6159,-0.6166,-0.6165,-0.6205,-0.6169,-0.6169,-0.6168,-0.6168,0,-0.6056,-0.6071,-0.6071,-0.6081,-0.6098,-0.6096,-0.6113,-0.6115,-0.6121,-0.6132,-0.6128,-0.6138,-0.6138,-0.6149,-0.6149,-0.6167,-0.6169,-0.6171,-0.6171,-0.6172,-0.6172,-0.6177,-0.6175,-0.617,-0.6169,-0.6169,-0.6169,0,-0.6085,-0.6085,-0.6103,-0.6108,-0.611,-0.6122,-0.6127,-0.6138,-0.6139,-0.6153,-0.6156,-0.6159,-0.6172,-0.6173,-0.6188,-0.6188,-0.621,-0.6207,-0.6207,-0.6207,-0.6222,-0.622,-0.6266,-0.6273,-0.6231,-0.6232,-0.6232,0,-0.6104,-0.6116,-0.6122,-0.6129,-0.6133,-0.6144,-0.6151,-0.615,-0.6157,-0.6166,-0.6176,-0.6188,-0.6198,-0.6219,-0.6223,-0.6234,-0.6233,-0.6248,-0.6234,-0.6235,-0.6234,-0.6234,-0.6235,-0.6251,-0.6251,-0.6252,-0.6252,0,-0.6139,-0.6138,-0.6148,-0.6158,-0.6166,-0.6174,-0.6182,-0.6188,-0.6187,-0.6196,-0.6209,-0.6217,-0.6232,-0.6245,-0.6256,-0.626,-0.6257,-0.6256,-0.626,-0.6261,-0.6261,-0.6262,-0.6215,-0.6255,-0.6255,-0.6255,-0.6254,-0.6254,-0.6164,-0.6174,-0.618,-0.6192,-0.6197,-0.6204,-0.6214,-0.6216,-0.6227,-0.6239,-0.6238,-0.6252,-0.626,-0.6275,-0.628,-0.6292,-0.6287,-0.6293,-0.6294,-0.6296,-0.6298,-0.6259,-0.6294,-0.6294,-0.6294,-0.6294,-0.6294,0,-0.6199,-0.6203,-0.6213,-0.6223,-0.6232,-0.6227,-0.6235,-0.6243,-0.6256,-0.6263,-0.6273,-0.6288,-0.63,-0.6305,-0.6317,-0.6326,-0.6325,-0.6329,-0.6329,-0.633,-0.6301,-0.6297,-0.633,-0.633,-0.633,-0.633,-0.633,-0.633,-0.6218,-0.6235,-0.6235,-0.6255,-0.6259,-0.6273,-0.6278,-0.6285,-0.6291,-0.6308,-0.6318,-0.632,-0.6327,-0.6339,-0.6351,-0.6352,-0.6357,-0.6363,-0.6363,-0.6336,-0.6332,-0.6329,-0.6325,-0.6364,-0.6364,-0.6392,-0.6392,-0.6392]},{"header":{"parameterUnit":"m.s-1","parameterCategory":1,"la1":30.2991,"la2":30.254,"lo1":-89.0895,"lo2":-89.0444,"dy":0.0017,"dx":0.0017,"nx":28,"ny":28,"refTime":"2025-12-11T03:00:00:Z","depth":0,"parameterNumber":3,"parameterNumberName":"V-component_of_WINDS"},"data":[0,0,0,0,0,0,0,0,0,0,0,0,0,0,0,0,0,0,0,0,0,0,0,0,0,0,0,0,0,0,0,0,0,0,0,0,0,0,0,0,0,0,0,0,0,0,0,0,0,0,0,0,0,0,0,0,0,0,2.9727,2.9728,0,2.9789,2.9789,2.979,2.9759,2.9757,2.9756,2.9754,2.9814,2.9817,2.982,0,0,0,0,0,0,0,0,0,0,0,0,0,2.9578,2.9581,2.9727,2.9728,2.9728,2.9789,2.9789,2.979,2.9759,2.9757,2.9755,2.9753,2.9813,2.9817,2.982,0,0,0,0,0,0,0,0,0,0,0,0,0,2.9641,2.9582,2.9727,2.972,2.972,2.9788,2.9789,2.979,2.976,2.9757,2.9755,2.9753,2.9812,2.9816,2.9821,2.9898,0,0,2.9835,2.9837,0,0,0,0,0,0,0,0,2.9638,2.9647,2.972,2.9721,2.9721,2.9764,2.9759,2.9826,2.976,2.9745,2.9754,2.9751,2.9799,2.9805,2.9821,2.9901,2.9903,2.9835,2.9838,2.984,2.9842,0,0,0,0,0,0,0,2.9633,2.9644,2.9751,2.9722,2.9722,2.9713,2.9719,2.9771,2.9784,2.9746,2.9744,2.9752,2.9799,2.9817,2.9822,2.9904,2.9835,2.9839,2.9842,2.9844,3.0047,3.005,0,0,0,0,0,0,2.963,2.964,2.9749,2.9753,2.9673,2.9717,2.9725,2.9752,2.9784,2.9786,2.9754,2.975,2.981,2.9817,2.9824,2.9915,2.984,2.9845,2.9847,3.0045,3.0048,3.0051,0,0,0,0,0,0,2.9627,2.964,2.9747,2.9696,2.9709,2.9723,2.9754,2.9755,2.9773,2.979,2.9792,2.977,2.9809,2.9818,2.988,2.9917,2.9847,2.9851,3.0042,3.0046,3.0049,3.0098,0,0,0,0,0,0,2.9622,2.9639,2.9669,2.9697,2.9712,2.9802,2.9756,2.9758,2.9782,2.9777,2.9806,2.9808,2.9807,2.9873,2.9884,2.9922,2.9855,3.0038,3.0043,3.0048,3.0093,3.0103,3.0112,0,0,0,0,0,2.9617,2.968,2.9671,2.9684,2.9751,2.9805,2.9813,2.9812,2.9785,2.9815,2.9825,2.9807,2.9911,2.9879,2.9892,2.9932,3.0036,3.0042,3.0048,3.0089,3.0101,3.0111,0,0,0,0,0,0,2.9656,2.9684,2.9674,2.9748,2.9774,2.9799,2.9837,2.9825,2.9858,2.9853,2.9849,2.9856,2.9919,2.9932,2.9896,3.0007,2.9969,2.9978,2.9996,3.0008,3.0017,3.0012,2.9858,0,0,0,0,0,2.9673,2.9716,2.9738,2.9801,2.9815,2.9824,2.9847,2.9844,2.987,2.9881,2.9896,2.9921,2.9959,2.9984,3.0021,3.0095,3.0099,3.0128,3.0137,3.0145,3.0152,3.019,3.0203,3.007,3.007,3.007,0,0,2.9709,2.973,2.9757,2.9809,2.9829,2.9872,2.9833,2.988,2.9911,2.9888,2.9947,2.9959,2.9986,3.0054,3.0085,3.0066,3.019,3.0152,3.0158,3.0161,3.0198,3.021,3.0221,3.0074,3.0073,3.0073,0,0,2.9796,2.9817,2.9871,2.9892,2.9922,2.9928,2.9941,2.9967,2.9974,3.0034,3.0016,3.0052,3.0119,3.0139,3.0158,3.0251,3.0235,3.0262,3.031,3.0348,3.0358,3.0367,3.0399,3.041,3.027,3.027,3.027,0,2.9836,2.9901,2.99,2.9948,2.9971,2.9952,3.0006,3.0026,3.0066,3.0081,3.0061,3.0142,3.016,3.0231,3.0254,3.027,3.0283,3.0259,3.0357,3.0366,3.0375,3.0405,3.0417,3.0273,3.0273,3.0272,3.0272,0,2.9948,2.9993,3.0033,3.0073,3.0101,3.0152,3.0156,3.0184,3.0178,3.0185,3.0244,3.0265,3.0304,3.0321,3.0315,3.0391,3.0378,3.0358,3.0319,3.0391,3.0418,3.043,3.0277,3.0276,3.0275,3.0275,0,0,3.0061,3.01,3.0114,3.0131,3.0163,3.0197,3.0246,3.0285,3.0308,3.0336,3.0376,3.0432,3.0413,3.0434,3.0431,3.0464,3.0534,3.0438,3.0439,3.0454,3.0616,3.063,3.0644,3.0524,3.0526,3.0528,3.0613,0,3.0149,3.0236,3.0236,3.0316,3.0356,3.0338,3.038,3.0404,3.0411,3.0446,3.0453,3.0493,3.0465,3.0477,3.0509,3.0518,3.0566,3.0512,3.0559,3.056,3.0551,3.0659,3.0675,3.0754,3.0624,3.0626,3.0627,0,3.0264,3.0296,3.038,3.0404,3.0421,3.046,3.0494,3.0528,3.0553,3.0556,3.058,3.0571,3.0619,3.058,3.0645,3.0608,3.0627,3.0634,3.0637,3.0641,3.0597,3.0663,3.078,3.0791,3.0645,3.0643,3.0642,0,3.0336,3.04,3.0458,3.0474,3.0504,3.0531,3.0545,3.0568,3.0591,3.0621,3.0635,3.067,3.0689,3.0715,3.0715,3.0688,3.078,3.0742,3.0782,3.0782,3.0802,3.0801,3.0921,3.0817,3.0816,3.0816,3.0816,0,3.0433,3.0485,3.0491,3.0526,3.0583,3.0581,3.0637,3.0648,3.0668,3.0704,3.0691,3.0725,3.0723,3.0757,3.0757,3.081,3.0819,3.0821,3.082,3.0822,3.0821,3.0833,3.0827,3.0819,3.0819,3.0818,3.0817,0,3.0523,3.0529,3.0591,3.0615,3.0622,3.0662,3.0682,3.0715,3.0721,3.0766,3.0777,3.0786,3.0825,3.0828,3.0873,3.0873,3.0937,3.093,3.0928,3.0927,3.0966,3.0962,3.1098,3.1115,3.1001,3.1002,3.1003,0,3.0584,3.0623,3.0651,3.0675,3.069,3.0728,3.0752,3.0751,3.0775,3.0806,3.0835,3.0873,3.0903,3.0966,3.0976,3.101,3.1003,3.1049,3.1008,3.1008,3.1002,3.0999,3.1002,3.1056,3.1057,3.1058,3.1059,0,3.0691,3.0692,3.0727,3.0763,3.0791,3.0819,3.0844,3.0864,3.0866,3.0894,3.0934,3.0958,3.1003,3.104,3.1073,3.1086,3.1072,3.1072,3.1083,3.1084,3.108,3.1081,3.0948,3.1069,3.1068,3.1067,3.1066,3.1066,3.0768,3.0801,3.0826,3.0864,3.0883,3.0908,3.0939,3.0949,3.0983,3.1021,3.1018,3.1062,3.1084,3.1127,3.1142,3.1175,3.1159,3.1176,3.1179,3.1183,3.1187,3.1076,3.1181,3.1181,3.1181,3.118,3.118,0,3.0873,3.0888,3.0923,3.096,3.099,3.0976,3.1003,3.1028,3.1067,3.109,3.112,3.1165,3.12,3.1213,3.1247,3.1271,3.1265,3.128,3.1277,3.128,3.1199,3.1186,3.1283,3.1283,3.1283,3.1283,3.1283,3.1283,3.0931,3.0987,3.099,3.1054,3.1068,3.1111,3.1128,3.1149,3.1167,3.1218,3.1248,3.1256,3.1274,3.1309,3.134,3.1343,3.1355,3.1372,3.1372,3.1296,3.1286,3.1276,3.1263,3.1375,3.1375,3.1449,3.145,3.1451]}]]